E27IHO-13 Weather Reports


time (UTC)temp
F
wind
direction
speed
knots
gust
knots
rain 1hr
in
rain 24hr
in
rain mn
in
humidity
%
barometer
mb
20260508092546 82 0 0.0 0.0 0.00 0.00 0.00 99 1007.0
20260508092021 82 0 0.0 0.0 0.00 0.00 0.00 99 1007.0
20260508091500 82 0 0.0 0.0 0.00 0.00 0.00 99 1007.0
20260508090939 82 0 0.0 0.0 0.00 0.00 0.00 99 1007.0
20260508090415 81 0 0.0 0.0 0.00 0.00 0.00 99 1008.0
20260508085853 86 0 0.0 0.0 0.00 0.00 0.00 99 1008.0
20260508085331 93 0 0.0 0.0 0.00 0.00 0.00 52 1007.0
20260508084809 95 0 0.0 0.0 0.00 0.00 0.00 51 1007.0
20260508084247 94 0 0.0 0.0 0.00 0.00 0.00 54 1006.0
20260508083725 97 0 0.0 0.0 0.00 0.00 0.00 51 1006.0
20260508083203 98 0 0.0 0.0 0.00 0.00 0.00 50 1006.0
20260508082641 99 0 0.0 0.0 0.00 0.00 0.00 48 1006.0
20260508082119 102 0 0.0 0.0 0.00 0.00 0.00 45 1006.0
20260508081557 102 0 0.0 0.0 0.00 0.00 0.00 44 1006.0
20260508081035 101 0 0.0 0.0 0.00 0.00 0.00 45 1006.0
20260508080513 102 0 0.0 0.0 0.00 0.00 0.00 44 1006.0
20260508075951 102 0 0.0 0.0 0.00 0.00 0.00 45 1006.0
20260508075429 102 0 0.0 0.0 0.00 0.00 0.00 46 1006.0
20260508074907 99 0 0.0 0.0 0.00 0.00 0.00 49 1006.0
20260508074345 100 0 0.0 0.0 0.00 0.00 0.00 47 1006.0
20260508073823 98 0 0.0 0.0 0.00 0.00 0.00 49 1006.0
20260508073301 97 0 0.0 0.0 0.00 0.00 0.00 52 1006.0
20260508072657 98 0 0.0 0.0 0.00 0.00 0.00 51 1006.0
20260508072135 99 0 0.0 0.0 0.00 0.00 0.00 49 1006.0
20260508071613 99 0 0.0 0.0 0.00 0.00 0.00 50 1006.0
20260508071051 99 0 0.0 0.0 0.00 0.00 0.00 49 1007.0
20260508070529 97 0 0.0 0.0 0.00 0.00 0.00 52 1007.0
20260508070012 99 0 0.0 0.0 0.00 0.00 0.00 51 1007.0
20260508065450 98 0 0.0 0.0 0.00 0.00 0.00 51 1007.0
20260508064928 99 0 0.0 0.0 0.00 0.00 0.00 53 1007.0
20260508064406 98 0 0.0 0.0 0.00 0.00 0.00 52 1007.0
20260508063844 98 0 0.0 0.0 0.00 0.00 0.00 53 1007.0
20260508063322 97 0 0.0 0.0 0.00 0.00 0.00 54 1008.0
20260508062800 97 0 0.0 0.0 0.00 0.00 0.00 54 1008.0
20260508062238 98 0 0.0 0.0 0.00 0.00 0.00 53 1008.0
20260508062052 98 0 0.0 0.0 0.00 0.00 0.00 52 1008.0
20260508061530 98 0 0.0 0.0 0.00 0.00 0.00 52 1008.0
20260508061008 98 0 0.0 0.0 0.00 0.00 0.00 51 1008.0
20260508060446 98 0 0.0 0.0 0.00 0.00 0.00 52 1008.0
20260508055924 98 0 0.0 0.0 0.00 0.00 0.00 51 1008.0
20260508055402 98 0 0.0 0.0 0.00 0.00 0.00 51 1008.0
20260508054840 97 0 0.0 0.0 0.00 0.00 0.00 54 1008.0
20260508054318 97 0 0.0 0.0 0.00 0.00 0.00 54 1008.0
20260508053756 96 0 0.0 0.0 0.00 0.00 0.00 55 1009.0
20260508053234 96 0 0.0 0.0 0.00 0.00 0.00 55 1009.0
20260508052712 97 0 0.0 0.0 0.00 0.00 0.00 54 1009.0
20260508052150 97 0 0.0 0.0 0.00 0.00 0.00 54 1009.0
20260508051628 97 0 0.0 0.0 0.00 0.00 0.00 53 1009.0
20260508041527 94 0 0.0 0.0 0.00 0.00 0.00 61 1010.0
20260508041005 92 0 0.0 0.0 0.00 0.00 0.00 63 1011.0
20260508040443 93 0 0.0 0.0 0.00 0.00 0.00 61 1011.0
20260508035921 94 0 0.0 0.0 0.00 0.00 0.00 60 1011.0
20260508035432 94 0 0.0 0.0 0.00 0.00 0.00 58 1011.0
20260508034911 94 0 0.0 0.0 0.00 0.00 0.00 59 1010.0
20260508034349 95 0 0.0 0.0 0.00 0.00 0.00 57 1011.0
20260508033827 95 0 0.0 0.0 0.00 0.00 0.00 56 1011.0
20260508033305 95 0 0.0 0.0 0.00 0.00 0.00 57 1011.0
20260508032742 94 0 0.0 0.0 0.00 0.00 0.00 59 1011.0
20260508032220 94 0 0.0 0.0 0.00 0.00 0.00 59 1011.0
20260508031658 94 0 0.0 0.0 0.00 0.00 0.00 56 1011.0
20260508031136 92 0 0.0 0.0 0.00 0.00 0.00 59 1011.0
20260508030614 92 0 0.0 0.0 0.00 0.00 0.00 59 1011.0
20260508030052 92 0 0.0 0.0 0.00 0.00 0.00 60 1011.0
20260508025530 93 0 0.0 0.0 0.00 0.00 0.00 59 1011.0
20260508025008 94 0 0.0 0.0 0.00 0.00 0.00 58 1011.0
20260508024447 94 0 0.0 0.0 0.00 0.00 0.00 58 1011.0
20260508023926 91 0 0.0 0.0 0.00 0.00 0.00 63 1011.0
20260508023404 91 0 0.0 0.0 0.00 0.00 0.00 64 1011.0
20260508022842 90 0 0.0 0.0 0.00 0.00 0.00 66 1011.0
20260508022320 91 0 0.0 0.0 0.00 0.00 0.00 67 1011.0
20260508021758 90 0 0.0 0.0 0.00 0.00 0.00 67 1011.0
20260508021236 90 0 0.0 0.0 0.00 0.00 0.00 68 1011.0
20260508020713 90 0 0.0 0.0 0.00 0.00 0.00 67 1011.0
20260508020151 90 0 0.0 0.0 0.00 0.00 0.00 67 1011.0
20260508015629 90 0 0.0 0.0 0.00 0.00 0.00 67 1011.0
20260508015107 89 0 0.0 0.0 0.00 0.00 0.00 69 1011.0
20260508014545 90 0 0.0 0.0 0.00 0.00 0.00 67 1011.0
20260508014023 90 0 0.0 0.0 0.00 0.00 0.00 67 1010.0
20260508013501 90 0 0.0 0.0 0.00 0.00 0.00 68 1010.0
20260508012939 89 0 0.0 0.0 0.00 0.00 0.00 71 1010.0
20260508012417 89 0 0.0 0.0 0.00 0.00 0.00 71 1010.0
20260508012143 89 0 0.0 0.0 0.00 0.00 0.00 72 1010.0
20260508011621 88 0 0.0 0.0 0.00 0.00 0.00 74 1010.0
20260508011449 88 0 0.0 0.0 0.00 0.00 0.00 74 1010.0
20260508010927 87 0 0.0 0.0 0.00 0.00 0.00 77 1010.0
20260508010405 86 0 0.0 0.0 0.00 0.00 0.00 77 1010.0
20260508005842 86 0 0.0 0.0 0.00 0.00 0.00 77 1010.0
20260508005400 86 0 0.0 0.0 0.00 0.00 0.00 77 1010.0
20260508004838 86 0 0.0 0.0 0.00 0.00 0.00 77 1010.0
20260508004316 86 0 0.0 0.0 0.00 0.00 0.00 78 1010.0
20260508003754 86 0 0.0 0.0 0.00 0.00 0.00 77 1010.0
20260508003447 86 0 0.0 0.0 0.00 0.00 0.00 77 1010.0
20260508002925 86 0 0.0 0.0 0.00 0.00 0.00 78 1010.0
20260508002635 86 0 0.0 0.0 0.00 0.00 0.00 78 1010.0
20260508002113 85 0 0.0 0.0 0.00 0.00 0.00 80 1010.0
20260508001552 85 0 0.0 0.0 0.00 0.00 0.00 79 1010.0
20260508001029 84 0 0.0 0.0 0.00 0.00 0.00 82 1010.0
20260508000507 84 0 0.0 0.0 0.00 0.00 0.00 83 1009.0
20260507235951 83 0 0.0 0.0 0.00 0.00 0.00 84 1009.0
20260507235423 84 0 0.0 0.0 0.00 0.00 0.00 83 1009.0
20260507234901 85 0 0.0 0.0 0.00 0.00 0.00 81 1009.0
20260507234339 84 0 0.0 0.0 0.00 0.00 0.00 82 1009.0
20260507234045 84 0 0.0 0.0 0.00 0.00 0.00 82 1009.0
20260507233523 84 0 0.0 0.0 0.00 0.00 0.00 83 1009.0
20260507233001 83 0 0.0 0.0 0.00 0.00 0.00 85 1009.0
20260507232411 82 0 0.0 0.0 0.00 0.00 0.00 88 1009.0
20260507231849 81 0 0.0 0.0 0.00 0.00 0.00 90 1009.0
20260507231327 81 0 0.0 0.0 0.00 0.00 0.00 91 1009.0
20260507230805 81 0 0.0 0.0 0.00 0.00 0.00 92 1009.0
20260507230243 80 0 0.0 0.0 0.00 0.00 0.00 93 1009.0
20260507225721 80 0 0.0 0.0 0.00 0.00 0.00 93 1009.0
20260507225540 80 0 0.0 0.0 0.00 0.00 0.00 93 1009.0
20260507225018 80 0 0.0 0.0 0.00 0.00 0.00 93 1009.0
20260507224456 80 0 0.0 0.0 0.00 0.00 0.00 93 1009.0
20260507223935 80 0 0.0 0.0 0.00 0.00 0.00 93 1009.0
20260507223412 80 0 0.0 0.0 0.00 0.00 0.00 93 1009.0
20260507222826 80 0 0.0 0.0 0.00 0.00 0.00 93 1009.0
20260507222306 80 0 0.0 0.0 0.00 0.00 0.00 93 1009.0
20260507221742 80 0 0.0 0.0 0.00 0.00 0.00 93 1009.0
20260507221220 80 0 0.0 0.0 0.00 0.00 0.00 93 1009.0
20260507220658 80 0 0.0 0.0 0.00 0.00 0.00 92 1009.0
20260507220136 80 0 0.0 0.0 0.00 0.00 0.00 92 1009.0
20260507215614 80 0 0.0 0.0 0.00 0.00 0.00 92 1009.0
20260507215052 80 0 0.0 0.0 0.00 0.00 0.00 93 1008.0
20260507214530 80 0 0.0 0.0 0.00 0.00 0.00 93 1008.0
20260507214241 80 0 0.0 0.0 0.00 0.00 0.00 92 1008.0
20260507213719 80 0 0.0 0.0 0.00 0.00 0.00 92 1008.0
20260507213157 80 0 0.0 0.0 0.00 0.00 0.00 92 1008.0
20260507212635 80 0 0.0 0.0 0.00 0.00 0.00 92 1008.0
20260507212113 80 0 0.0 0.0 0.00 0.00 0.00 92 1008.0
20260507211551 80 0 0.0 0.0 0.00 0.00 0.00 92 1008.0
20260507211029 80 0 0.0 0.0 0.00 0.00 0.00 92 1008.0
20260507210507 80 0 0.0 0.0 0.00 0.00 0.00 92 1008.0
20260507205945 80 0 0.0 0.0 0.00 0.00 0.00 91 1008.0
20260507205423 80 0 0.0 0.0 0.00 0.00 0.00 91 1008.0
20260507204901 80 0 0.0 0.0 0.00 0.00 0.00 91 1008.0
20260507204620 81 0 0.0 0.0 0.00 0.00 0.00 91 1008.0
20260507204057 81 0 0.0 0.0 0.00 0.00 0.00 91 1008.0
20260507203535 81 0 0.0 0.0 0.00 0.00 0.00 91 1008.0
20260507203014 81 0 0.0 0.0 0.00 0.00 0.00 91 1008.0
20260507202452 81 0 0.0 0.0 0.00 0.00 0.00 91 1008.0
20260507201929 81 0 0.0 0.0 0.00 0.00 0.00 90 1008.0
20260507201407 81 0 0.0 0.0 0.00 0.00 0.00 90 1008.0
20260507200845 81 0 0.0 0.0 0.00 0.00 0.00 90 1008.0
20260507200323 81 0 0.0 0.0 0.00 0.00 0.00 90 1008.0
20260507195801 81 0 0.0 0.0 0.00 0.00 0.00 90 1008.0
20260507195305 81 0 0.0 0.0 0.00 0.00 0.00 90 1008.0
20260507194740 81 0 0.0 0.0 0.00 0.00 0.00 89 1009.0
20260507194219 81 0 0.0 0.0 0.00 0.00 0.00 89 1009.0
20260507193658 81 0 0.0 0.0 0.00 0.00 0.00 89 1009.0
20260507193134 81 0 0.0 0.0 0.00 0.00 0.00 89 1009.0
20260507192612 81 0 0.0 0.0 0.00 0.00 0.00 88 1009.0
20260507192050 81 0 0.0 0.0 0.00 0.00 0.00 88 1009.0
20260507191637 81 0 0.0 0.0 0.00 0.00 0.00 89 1009.0
20260507191212 81 0 0.0 0.0 0.00 0.00 0.00 88 1009.0
20260507190650 81 0 0.0 0.0 0.00 0.00 0.00 89 1009.0
20260507190128 81 0 0.0 0.0 0.00 0.00 0.00 89 1009.0
20260507185914 81 0 0.0 0.0 0.00 0.00 0.00 89 1009.0
20260507185352 81 0 0.0 0.0 0.00 0.00 0.00 89 1009.0
20260507184830 81 0 0.0 0.0 0.00 0.00 0.00 89 1009.0
20260507184308 81 0 0.0 0.0 0.00 0.00 0.00 88 1009.0
20260507183746 81 0 0.0 0.0 0.00 0.00 0.00 88 1009.0
20260507183224 81 0 0.0 0.0 0.00 0.00 0.00 88 1009.0
20260507182702 81 0 0.0 0.0 0.00 0.00 0.00 88 1009.0
20260507182140 81 0 0.0 0.0 0.00 0.00 0.00 88 1009.0
20260507181618 81 0 0.0 0.0 0.00 0.00 0.00 88 1009.0
20260507181330 81 0 0.0 0.0 0.00 0.00 0.00 88 1009.0
20260507180808 81 0 0.0 0.0 0.00 0.00 0.00 88 1009.0
20260507180246 81 0 0.0 0.0 0.00 0.00 0.00 88 1009.0
20260507175724 81 0 0.0 0.0 0.00 0.00 0.00 87 1009.0
20260507175202 81 0 0.0 0.0 0.00 0.00 0.00 87 1009.0
20260507174640 81 0 0.0 0.0 0.00 0.00 0.00 87 1009.0
20260507174118 81 0 0.0 0.0 0.00 0.00 0.00 86 1009.0
20260507173556 81 0 0.0 0.0 0.00 0.00 0.00 86 1009.0
20260507173034 82 0 0.0 0.0 0.00 0.00 0.00 85 1009.0
20260507172512 82 0 0.0 0.0 0.00 0.00 0.00 85 1009.0
20260507172310 82 0 0.0 0.0 0.00 0.00 0.00 85 1009.0
20260507171748 82 0 0.0 0.0 0.00 0.00 0.00 85 1009.0
20260507171226 82 0 0.0 0.0 0.00 0.00 0.00 85 1009.0
20260507170704 82 0 0.0 0.0 0.00 0.00 0.00 84 1009.0
20260507170142 82 0 0.0 0.0 0.00 0.00 0.00 84 1010.0
20260507165620 82 0 0.0 0.0 0.00 0.00 0.00 85 1010.0
20260507165058 82 0 0.0 0.0 0.00 0.00 0.00 84 1010.0
20260507164536 82 0 0.0 0.0 0.00 0.00 0.00 84 1010.0
20260507164014 82 0 0.0 0.0 0.00 0.00 0.00 84 1010.0
20260507163841 82 0 0.0 0.0 0.00 0.00 0.00 84 1010.0
20260507163319 82 0 0.0 0.0 0.00 0.00 0.00 83 1010.0
20260507162757 82 0 0.0 0.0 0.00 0.00 0.00 83 1010.0
20260507162235 83 0 0.0 0.0 0.00 0.00 0.00 82 1010.0
20260507161713 83 0 0.0 0.0 0.00 0.00 0.00 82 1010.0
20260507161151 83 0 0.0 0.0 0.00 0.00 0.00 82 1010.0
20260507160629 83 0 0.0 0.0 0.00 0.00 0.00 82 1010.0
20260507160107 83 0 0.0 0.0 0.00 0.00 0.00 82 1010.0
20260507155545 83 0 0.0 0.0 0.00 0.00 0.00 81 1010.0
20260507155023 83 0 0.0 0.0 0.00 0.00 0.00 82 1010.0
20260507154501 83 0 0.0 0.0 0.00 0.00 0.00 82 1010.0
20260507153939 82 0 0.0 0.0 0.00 0.00 0.00 83 1010.0
20260507153417 82 0 0.0 0.0 0.00 0.00 0.00 83 1010.0
20260507152855 83 0 0.0 0.0 0.00 0.00 0.00 82 1010.0
20260507152350 83 0 0.0 0.0 0.00 0.00 0.00 81 1010.0
20260507151828 83 0 0.0 0.0 0.00 0.00 0.00 81 1010.0
20260507151306 83 0 0.0 0.0 0.00 0.00 0.00 81 1010.0
20260507151049 83 0 0.0 0.0 0.00 0.00 0.00 81 1010.0
20260507150820 83 0 0.0 0.0 0.00 0.00 0.00 81 1010.0
20260507150258 83 0 0.0 0.0 0.00 0.00 0.00 81 1010.0
20260507145736 83 0 0.0 0.0 0.00 0.00 0.00 81 1010.0
20260507145214 83 0 0.0 0.0 0.00 0.00 0.00 81 1010.0
20260507144652 84 0 0.0 0.0 0.00 0.00 0.00 80 1010.0
20260507144130 84 0 0.0 0.0 0.00 0.00 0.00 79 1010.0
20260507143947 84 0 0.0 0.0 0.00 0.00 0.00 80 1010.0
20260507143425 84 0 0.0 0.0 0.00 0.00 0.00 80 1010.0
20260507142903 84 0 0.0 0.0 0.00 0.00 0.00 79 1010.0
20260507142341 84 0 0.0 0.0 0.00 0.00 0.00 79 1010.0
20260507141819 84 0 0.0 0.0 0.00 0.00 0.00 80 1010.0
20260507141257 83 0 0.0 0.0 0.00 0.00 0.00 80 1010.0
20260507140735 83 0 0.0 0.0 0.00 0.00 0.00 80 1010.0
20260507140213 84 0 0.0 0.0 0.00 0.00 0.00 79 1010.0
20260507135651 84 0 0.0 0.0 0.00 0.00 0.00 79 1010.0
20260507135306 84 0 0.0 0.0 0.00 0.00 0.00 79 1010.0
20260507134740 83 0 0.0 0.0 0.00 0.00 0.00 79 1009.0
20260507134218 84 0 0.0 0.0 0.00 0.00 0.00 79 1009.0
20260507133656 83 0 0.0 0.0 0.00 0.00 0.00 79 1009.0
20260507133134 83 0 0.0 0.0 0.00 0.00 0.00 80 1009.0
20260507132612 83 0 0.0 0.0 0.00 0.00 0.00 79 1009.0
20260507132314 84 0 0.0 0.0 0.00 0.00 0.00 79 1009.0
20260507131752 84 0 0.0 0.0 0.00 0.00 0.00 79 1009.0
20260507131230 83 0 0.0 0.0 0.00 0.00 0.00 79 1009.0
20260507130707 84 0 0.0 0.0 0.00 0.00 0.00 79 1009.0
20260507130145 83 0 0.0 0.0 0.00 0.00 0.00 79 1009.0
20260507125623 83 0 0.0 0.0 0.00 0.00 0.00 79 1009.0
20260507125408 83 0 0.0 0.0 0.00 0.00 0.00 79 1009.0
20260507124846 83 0 0.0 0.0 0.00 0.00 0.00 79 1009.0
20260507124324 83 0 0.0 0.0 0.00 0.00 0.00 79 1009.0
20260507123912 83 0 0.0 0.0 0.00 0.00 0.00 79 1008.0
20260507123349 83 0 0.0 0.0 0.00 0.00 0.00 79 1008.0
20260507122827 83 0 0.0 0.0 0.00 0.00 0.00 79 1008.0
20260507122307 83 0 0.0 0.0 0.00 0.00 0.00 79 1008.0
20260507112751 84 0 0.0 0.0 0.00 0.00 0.00 76 1007.0
20260507112229 84 0 0.0 0.0 0.00 0.00 0.00 75 1007.0
20260507111706 84 0 0.0 0.0 0.00 0.00 0.00 76 1007.0
20260507111145 84 0 0.0 0.0 0.00 0.00 0.00 76 1007.0
20260507110830 84 0 0.0 0.0 0.00 0.00 0.00 75 1007.0
20260507110308 84 0 0.0 0.0 0.00 0.00 0.00 74 1007.0